Location: Chaumontel
(49.1247°N, 2.4324°E)
Time: 09:10:11
(UTC+00:00)

Cosmos 2360 Rocket - Pass Details

Date: 03 February 2023
Orbit: 832 x 846 km, 71.0° (Epoch: 24 March)

Event Time Altitude Azimuth Distance (km) Brightness Sun altitude
Rises 18:03:13 0° 184° (S) 3,373 5.5 -12.2°
Reaches altitude 10° 18:05:45 10° 178° (S) 2,445 4.7 -12.6°
Maximum altitude 18:11:00 43° 109° (ESE) 1,175 2.6 -13.5°
Enters shadow 18:15:55 12° 41° (NE) 2,336 4.1 -14.3°
